This is the latest recevied weather packets stored in our database for station/object KA3WVU. If no packets are shown the sender has not sent any weather packets the latest 10 day(s).
| Time | Temp. | Humidity | Pressure | Rain* | Wind** | Luminosity | Snow |
|---|---|---|---|---|---|---|---|
| 1777671284 | 4.44° C | 99% | 1010.9 hPa | 0 mm | - | 14 W/m² | - |
| 1777670979 | 4.44° C | 99% | 1011 hPa | 0 mm | - | 12 W/m² | - |
| 1777670676 | 4.44° C | 99% | 1011 hPa | 0 mm | - | 17 W/m² | - |
| 1777670373 | 4.44° C | 99% | 1010.9 hPa | 0 mm | - | 16 W/m² | - |
| 1777670071 | 4.44° C | 99% | 1010.6 hPa | 0 mm | - | 26 W/m² | - |
| 1777669768 | 5° C | 98% | 1010.4 hPa | 0 mm | - | 23 W/m² | - |
| 1777669464 | 5° C | 98% | 1010.5 hPa | 0 mm | - | 14 W/m² | - |
| 1777669161 | 5.56° C | 97% | 1010.4 hPa | 0 mm | - | 20 W/m² | - |
| 1777668858 | 5.56° C | 96% | 1010.6 hPa | 0 mm | - | 50 W/m² | - |
| 1777668555 | 5.56° C | 96% | 1010.6 hPa | 0 mm | - | 75 W/m² | - |
| 1777668251 | 5.56° C | 97% | 1010.5 hPa | 0 mm | - | 68 W/m² | - |
| 1777667947 | 5.56° C | 96% | 1010.5 hPa | 0 mm | - | 62 W/m² | - |
| 1777667644 | 5.56° C | 96% | 1010.4 hPa | 0 mm | - | 119 W/m² | - |
| 1777667341 | 5.56° C | 97% | 1010.6 hPa | 0 mm | - | 125 W/m² | - |
| 1777667038 | 5.56° C | 97% | 1010.8 hPa | 0 mm | - | 84 W/m² | - |
| 1777666735 | 5.56° C | 97% | 1010.6 hPa | 0 mm | - | 127 W/m² | - |
| 1777666431 | 5.56° C | 96% | 1010.6 hPa | 0 mm | - | 107 W/m² | - |
| 1777666128 | 5.56° C | 96% | 1011 hPa | 0 mm | - | 109 W/m² | - |
| 1777665825 | 5.56° C | 96% | 1010.8 hPa | 0 mm | - | 119 W/m² | - |
| 1777665523 | 5.56° C | 95% | 1010.8 hPa | 0 mm | - | 128 W/m² | - |
| 1777665218 | 5.56° C | 95% | 1011 hPa | 0 mm | - | 118 W/m² | - |
| 1777664915 | 5° C | 95% | 1010.8 hPa | 0 mm | - | 105 W/m² | - |
| 1777664611 | 5° C | 94% | 1010.8 hPa | 0 mm | - | 153 W/m² | - |
| 1777664307 | 5.56° C | 96% | 1010.8 hPa | 0 mm | - | 99 W/m² | - |
| 1777664007 | 5° C | 96% | 1010.6 hPa | 0 mm | - | 180 W/m² | - |
* Rain latest hour (hover to see other rain measurements)
** Current wind speed in m/s (hover to see current wind gust speed)